Location: Le Rocchette
(44.3500°N, 7.8333°E)
Time: 20:32:31
(UTC+00:00)

ASTEX 1 - Pass Details

Date: 17 November 2019
Orbit: 721 x 743 km, 92.7° (Epoch: 11 December)

Event Time Altitude Azimuth Distance (km) Brightness Sun altitude
Rises 04:50:42 0° 200° (SSW) 3,148 6.6 -17.1°
Reaches altitude 10° 04:53:13 10° 211° (SSW) 2,235 5.7 -16.6°
Maximum altitude 04:57:34 31° 272° (W) 1,295 4.1 -15.9°
Drops below altitude 10° 05:01:59 10° 334° (NNW) 2,260 5.6 -15.1°
Sets 05:04:34 0° 345° (NNW) 3,191 6.4 -14.7°
